Regional Weather Roundup
Issued by NWS Sioux Falls, SD

Home | Current Version | Previous Version | Text Only | Print | Product List | Glossary On
Versions: 1 2 3 4 5 6 7 8 9 10 11 12 13 14 15 16 17 18 19 20 21 22 23 24 25 26 27 28 29 30 31 32 33 34 35 36 37 38 39 40 41 42 43 44 45 46 47 48 49 50
000
ASUS43 KFSD 301310
RWRFSD

WEATHER ROUNDUP FOR SE SOUTH DAKOTA/SW MINNESOTA/NW IOWA
NATIONAL WEATHER SERVICE SIOUX FALLS SD
800 AM CDT TUE AUG 30 2016

NOTE: "FAIR" INDICATES FEW OR NO CLOUDS BELOW 12,000 FEET WITH NO
SIGNIFICANT WEATHER AND OR OBSTRUCTIONS TO VISIBILITY.


SDZ038>040-050-052>070-301400-
SOUTHEAST SOUTH DAKOTA

CITY           SKY/WX    TMP DP  RH WIND       PRES   REMARKS
BROOKINGS      CLOUDY    68  66  93 MISG        N/A
CHAMBERLAIN    MOSUNNY   68  68 100 E3        30.20R
HURON          MOSUNNY   68  64  87 E6        30.20R
MADISON        CLOUDY    66  66 100 E7        30.22S
MITCHELL       MOSUNNY   67  65  93 SE3       30.20R
SIOUX FALLS    CLOUDY    71  68  90 E3        30.20S
WINNER         FAIR      68  63  84 SW5       30.20R
YANKTON        CLOUDY    66  63  88 E6        30.19S
$$

MNZ071-072-080-081-089-090-097-098-301400-
SOUTHWEST MINNESOTA

CITY           SKY/WX    TMP DP  RH WIND       PRES   REMARKS
FAIRMONT       CLOUDY    66  65  96 SW6       30.16R
JACKSON        MOSUNNY   64  63  94 W3        30.18F
LUVERNE        CLOUDY    66  63  88 SE3       30.21S
MARSHALL       CLOUDY    66  64  93 NW8       30.21S
MONTEVIDEO     CLOUDY    64  64 100 N3        30.23R
REDWOOD FALLS  CLOUDY    67  65  93 NW5       30.19S
TRACY          CLOUDY    67  65  94 W5        30.20S
WINDOM         CLOUDY    66  63  88 SW3       30.17F
WORTHINGTON    PTSUNNY   66  65  96 SW5       30.20F
$$

IAZ001>003-012>014-020>022-031-032-NEZ013-014-SDZ071-301400-
NORTHWEST IOWA

CITY           SKY/WX    TMP DP  RH WIND       PRES   REMARKS
CHEROKEE       RAIN      68  68 100 S3        30.23R
DENISON        CLOUDY    68  68 100 N6        30.20R FOG
ESTHERVILLE    CLOUDY    65  65 100 W5        30.17S
LE MARS        MOSUNNY   68  66  94 S3        30.22S
ORANGE CITY    CLOUDY    70  66  88 SE3       30.22R
SHELDON        CLOUDY    68  66  94 VRB6      30.21R
SIOUX CITY     LGT RAIN  69  67  93 E8        30.22R FOG
SPENCER        CLOUDY    66  64  93 SW7       30.22R
STORM LAKE     HVY RAIN  66  64  94 SW3       30.23R VSB 1
$$

ABBREVIATIONS USED IN REMARKS
   TC - TEMPERATURE IN CELSIUS
  WCI - WIND CHILL INDEX
   HX - HEAT INDEX
  VSB - VISIBILITY





USA.gov is the U.S. government's official web portal to all federal, state and local government web resources and services.